Location: North Evanston
(42.0634°N, 87.6976°W)
Time: 20:55:50
(UTC+00:00)

Transit 2A - Pass Details

Date: 13 May 2026
Orbit: 595 x 948 km, 66.7° (Epoch: 9 June)

Event Time Altitude Azimuth Distance (km) Brightness Sun altitude
Rises 06:52:34 0° 330° (NNW) 3,182 9.8 -27.7°
Reaches altitude 10° 06:55:03 10° 331° (NNW) 2,198 8.9 -27.5°
Enters shadow 06:59:18 64° 348° (NNW) 747 6.0 -27.3°
Maximum altitude 07:00:01 81° 59° (ENE) 677 - -27.2°
Drops below altitude 10° 07:04:31 10° 147° (SSE) 2,000 - -26.9°
Sets 07:06:41 0° 149° (SSE) 2,871 - -26.8°
